Latest Weather Observations for Devonport Airport

IDT60801

Issued at 2:05 pm EST Thursday 24 July 2014 (issued every 30 minutes, with the page automatically refreshed every 10 minutes)

About weather observations | Map of weather stations | Latest weather observations for TAS | Other Formats
Station Details ID: 091126 Name: DEVONPORT AIRPORT Lat: -41.17 Lon: 146.43 Height: 8.0 m
Data from the previous 72 hours. | See also: Recent months at Devonport Airport
Date/Time
EST
Temp
°C
App
Temp
°C
Dew
Point
Rel
Hum
%
Delta-T
°C
Wind Press
QNH
hPa
Press
MSL
hPa
Rain
since 9 am
mm
Dir
 
Spd
km/h
Gust
km/h
Spd
kts
Gust
kts
24/02:00pm 13.8 10.6 8.6 71 2.6 SE 15 26 8 14 1017.1 1017.2 0.0
24/01:30pm 13.9 10.4 8.7 71 2.6 SE 17 20 9 11 1017.4 - 0.0
24/01:00pm 13.3 9.7 8.4 72 2.4 SE 17 22 9 12 1017.8 1017.9 0.0
24/12:30pm 13.3 9.7 8.2 71 2.5 ESE 17 22 9 12 1018.2 - 0.0
24/12:00pm 13.3 9.1 8.2 71 2.5 SSE 20 26 11 14 1018.5 1018.5 0.0
24/11:30am 12.7 8.7 8.2 74 2.2 SE 19 24 10 13 1019.3 - 0.0
24/11:00am 11.2 6.9 7.1 76 2.0 SSE 19 24 10 13 1019.5 1019.5 0.0
24/10:30am 9.9 5.9 6.6 80 1.5 S 17 22 9 12 1019.7 - 0.0
24/10:00am 9.1 4.5 5.7 79 1.5 S 19 24 10 13 1019.9 1019.9 0.0
24/09:30am 8.4 3.8 5.5 82 1.3 S 19 24 10 13 1020.0 - 0.0
24/09:00am 7.7 2.8 5.2 84 1.1 S 20 26 11 14 1020.0 1020.0 0.0
24/08:30am 7.2 2.2 4.7 84 1.1 SSE 20 24 11 13 1020.0 - 0.0
24/08:00am 6.7 1.9 4.5 86 0.9 S 19 24 10 13 1020.1 1020.1 0.0
24/07:30am 6.4 1.6 4.4 87 0.9 SSE 19 22 10 12 1019.9 - 0.0
24/07:00am 6.4 1.4 4.4 87 0.9 S 20 24 11 13 1019.8 1019.8 0.0
24/06:30am 6.4 1.6 4.6 88 0.8 S 19 22 10 12 1019.7 - 0.0
24/06:00am 5.8 0.7 4.0 88 0.8 S 20 24 11 13 1019.6 1019.6 0.0
24/05:30am 6.3 1.3 4.5 88 0.8 SSE 20 24 11 13 1019.6 - 0.0
24/05:00am 6.2 1.7 4.4 88 0.8 SSE 17 20 9 11 1019.7 1019.7 0.0
24/04:30am 6.2 1.4 4.4 88 0.8 SSE 19 22 10 12 1019.7 - 0.0
24/04:00am 6.3 1.5 4.6 89 0.7 S 19 22 10 12 1020.0 1020.0 0.0
24/03:30am 6.5 1.6 5.1 91 0.6 S 20 22 11 12 1020.1 - 0.0
24/03:00am 6.1 1.3 4.9 92 0.5 S 19 20 10 11 1020.3 1020.3 0.0
24/02:30am 5.9 1.0 4.9 93 0.4 SSE 20 24 11 13 1020.5 - 0.0
24/02:00am 5.7 0.9 4.8 94 0.4 S 19 20 10 11 1020.7 1020.7 0.0
24/01:30am 5.4 1.3 4.5 94 0.4 S 15 20 8 11 1020.6 - 0.0
24/01:00am 5.5 1.4 4.6 94 0.4 S 15 20 8 11 1020.8 1020.8 0.0
24/12:30am 5.5 1.4 4.6 94 0.4 S 15 20 8 11 1021.0 - 0.0
24/12:00am 5.1 1.0 4.2 94 0.4 S 15 20 8 11 1021.3 1021.3 0.0
 
Date/Time
EST
Temp
°C
App
Temp
°C
Dew
Point
Rel
Hum
%
Delta-T
°C
Wind Press
QNH
hPa
Press
MSL
hPa
Rain
since 9 am
mm
Dir
 
Spd
km/h
Gust
km/h
Spd
kts
Gust
kts
23/11:30pm 5.6 1.6 4.9 95 0.3 S 15 17 8 9 1021.7 - 0.0
23/11:00pm 5.6 1.6 4.7 94 0.4 S 15 20 8 11 1021.8 1021.8 0.0
23/10:30pm 5.3 2.0 4.6 95 0.3 S 11 15 6 8 1021.9 - 0.0
23/10:00pm 5.0 1.6 4.1 94 0.4 S 11 13 6 7 1022.1 1022.1 0.0
23/09:30pm 5.1 1.7 4.2 94 0.4 S 11 15 6 8 1022.3 - 0.0
23/09:00pm 5.2 1.5 4.3 94 0.4 SSE 13 15 7 8 1022.2 1022.2 0.0
23/08:30pm 5.2 1.5 4.3 94 0.4 SSE 13 15 7 8 1022.2 - 0.0
23/08:00pm 5.0 0.8 4.0 93 0.4 SSE 15 17 8 9 1022.1 1022.1 0.0
23/07:30pm 4.9 1.4 3.7 92 0.5 SSE 11 13 6 7 1022.2 - 0.0
23/07:00pm 4.7 2.1 3.4 91 0.5 SE 6 9 3 5 1022.0 1022.0 0.0
23/06:30pm 5.3 2.2 3.8 90 0.6 SE 9 11 5 6 1021.8 - 0.0
23/06:00pm 6.0 4.7 4.2 88 0.8 CALM 0 0 0 0 1021.9 1021.9 0.0
23/05:30pm 8.0 6.6 5.6 85 1.1 WSW 2 13 1 7 1021.8 - 0.0
23/05:00pm 9.5 8.3 6.4 81 1.4 NW 2 6 1 3 1021.6 1021.6 0.0
23/04:30pm 10.8 8.8 7.3 79 1.7 NW 7 9 4 5 1021.6 - 0.0
23/04:00pm 11.2 8.6 7.7 79 1.7 NNW 11 13 6 7 1021.7 1021.7 0.0
23/03:30pm 11.5 9.6 7.4 76 2.0 NNW 7 11 4 6 1021.6 - 0.0
23/03:00pm 11.5 8.9 7.8 78 1.8 NW 11 15 6 8 1021.8 1021.8 0.0
23/02:30pm 11.7 8.2 7.0 73 2.2 NW 15 17 8 9 1022.1 - 0.0
23/02:00pm 12.1 9.0 7.2 72 2.3 N 13 15 7 8 1022.0 1022.0 0.0
23/01:30pm 11.8 8.6 6.7 71 2.4 N 13 15 7 8 1022.2 - 0.0
23/01:00pm 12.0 9.1 6.7 70 2.5 N 11 13 6 7 1022.5 1022.5 0.0
23/12:30pm 12.3 10.8 6.8 69 2.6 S 4 7 2 4 1023.0 - 0.0
23/12:00pm 11.5 9.5 6.4 71 2.4 S 6 9 3 5 1023.6 1023.6 0.0
23/11:30am 10.7 7.8 6.5 75 2.0 S 11 13 6 7 1024.1 - 0.0
23/11:00am 10.0 7.4 6.3 78 1.7 S 9 11 5 6 1024.8 1024.8 0.0
23/10:30am 8.8 5.4 5.9 82 1.3 S 13 15 7 8 1025.2 - 0.0
23/10:00am 7.9 4.1 5.9 87 0.9 S 15 17 8 9 1025.2 1025.2 0.0
23/09:30am 6.9 4.6 5.7 92 0.5 S 7 13 4 7 1025.2 - 0.0
23/09:00am 5.4 2.8 4.4 93 0.4 S 7 11 4 6 1025.1 1025.1 0.0
23/08:30am 3.9 -0.1 2.9 93 0.4 S 13 19 7 10 1024.8 - 0.0
23/08:00am 3.4 -1.0 2.5 94 0.4 S 15 17 8 9 1024.8 1024.8 0.0
23/07:30am 3.1 -1.8 2.2 94 0.4 S 17 19 9 10 1024.7 - 0.0
23/07:00am 3.3 -0.8 2.4 94 0.4 S 13 17 7 9 1024.5 1024.5 0.0
23/06:30am 3.5 -1.3 2.6 94 0.4 S 17 20 9 11 1024.4 - 0.0
23/06:00am 3.2 -2.0 2.5 95 0.3 S 19 20 10 11 1024.4 1024.4 0.0
23/05:30am 2.9 -2.0 2.0 94 0.4 S 17 20 9 11 1024.4 - 0.0
23/05:00am 3.7 -1.4 3.0 95 0.3 S 19 20 10 11 1024.4 1024.4 0.0
23/04:30am 3.3 -1.5 2.4 94 0.4 S 17 20 9 11 1024.5 - 0.0
23/04:00am 3.6 -1.2 2.7 94 0.4 S 17 19 9 10 1024.7 1024.7 0.0
23/03:30am 5.0 0.9 4.1 94 0.4 S 15 17 8 9 1025.0 - 0.0
23/03:00am 4.1 -0.2 3.2 94 0.4 S 15 19 8 10 1025.1 1025.1 0.0
23/02:30am 4.3 0.4 3.4 94 0.4 S 13 17 7 9 1025.2 - 0.0
23/02:00am 4.4 0.5 3.4 93 0.4 S 13 17 7 9 1025.1 1025.1 0.0
23/01:30am 4.3 0.0 3.3 93 0.4 S 15 17 8 9 1024.9 - 0.0
23/01:00am 5.4 1.7 4.2 92 0.5 S 13 15 7 8 1024.8 1024.8 0.0
23/12:30am 5.6 1.9 4.6 93 0.4 S 13 15 7 8 1025.0 - 0.0
23/12:00am 5.6 1.5 4.4 92 0.5 S 15 19 8 10 1025.1 1025.1 0.0
 
Date/Time
EST
Temp
°C
App
Temp
°C
Dew
Point
Rel
Hum
%
Delta-T
°C
Wind Press
QNH
hPa
Press
MSL
hPa
Rain
since 9 am
mm
Dir
 
Spd
km/h
Gust
km/h
Spd
kts
Gust
kts
22/11:30pm 5.3 1.2 4.1 92 0.5 S 15 17 8 9 1025.4 - 0.0
22/11:00pm 5.6 1.5 4.2 91 0.6 S 15 17 8 9 1025.5 1025.5 0.0
22/10:30pm 6.2 2.6 4.8 91 0.6 S 13 17 7 9 1025.6 - 0.0
22/10:00pm 6.6 3.0 5.1 90 0.7 S 13 15 7 8 1025.5 1025.5 0.0
22/09:30pm 6.7 3.5 5.3 91 0.6 S 11 13 6 7 1025.6 - 0.0
22/09:00pm 6.8 3.7 5.4 91 0.6 SSE 11 13 6 7 1025.4 1025.4 0.0
22/08:30pm 6.6 3.8 5.1 90 0.7 SE 9 11 5 6 1025.4 - 0.0
22/08:00pm 6.7 3.5 5.2 90 0.7 SSE 11 11 6 6 1025.4 1025.4 0.0
22/07:30pm 6.5 3.7 5.0 90 0.7 S 9 11 5 6 1025.5 - 0.0
22/07:00pm 6.7 3.9 5.0 89 0.7 S 9 9 5 5 1025.4 1025.4 0.0
22/06:30pm 6.0 2.9 3.8 86 0.9 S 9 9 5 5 1025.3 - 0.0
22/06:00pm 7.0 4.4 4.0 81 1.3 S 7 9 4 5 1025.1 1025.1 0.0
22/05:30pm 8.4 6.4 4.2 75 1.8 WSW 4 6 2 3 1025.1 - 0.0
22/05:00pm 9.9 7.6 5.5 74 2.0 W 7 9 4 5 1025.0 1025.0 0.0
22/04:30pm 11.3 9.1 6.0 70 2.5 WNW 7 9 4 5 1024.9 - 0.0
22/04:00pm 11.4 8.7 5.7 68 2.6 NNW 9 11 5 6 1024.8 1024.8 0.0
22/03:30pm 11.5 8.8 5.6 67 2.7 N 9 11 5 6 1024.8 - 0.0
22/03:00pm 11.5 8.6 4.5 62 3.1 N 9 11 5 6 1024.7 1024.7 0.0
22/02:30pm 11.9 9.1 5.1 63 3.1 N 9 11 5 6 1024.9 - 0.0
22/02:00pm 11.5 8.5 4.0 60 3.3 N 9 11 5 6 1025.0 1025.0 0.0
22/01:30pm 11.7 8.5 5.3 65 2.9 N 11 13 6 7 1025.2 - 0.0
22/01:00pm 12.3 9.4 4.8 60 3.4 NNW 9 9 5 5 1025.5 1025.5 0.0
22/12:30pm 12.4 11.4 5.6 63 3.2 CALM 0 0 0 0 1025.7 - 0.0
22/12:00pm 11.3 9.1 5.2 66 2.8 SSE 6 9 3 5 1026.1 1026.1 0.0
22/11:30am 10.6 8.1 4.5 66 2.7 S 7 11 4 6 1026.7 - 0.0
22/11:00am 9.4 5.7 4.6 72 2.1 SSE 13 15 7 8 1027.1 1027.1 0.0
22/10:30am 8.2 3.7 4.4 77 1.7 S 17 20 9 11 1027.3 - 0.0
22/10:00am 7.5 3.4 4.3 80 1.4 S 15 20 8 11 1027.3 1027.3 0.0
22/09:30am 7.0 2.5 4.3 83 1.2 S 17 20 9 11 1027.2 - 0.0
22/09:00am 5.6 0.9 3.4 86 0.9 S 17 20 9 11 1027.2 1027.2 0.0
22/08:30am 4.6 -0.1 2.9 89 0.7 S 17 20 9 11 1026.9 - 0.0
22/08:00am 3.9 0.2 2.4 90 0.6 S 11 17 6 9 1026.6 1026.6 0.0
22/07:30am 3.7 -0.8 2.2 90 0.6 S 15 19 8 10 1026.4 - 0.0
22/07:00am 3.9 -0.9 2.6 91 0.5 SSE 17 20 9 11 1026.0 1026.0 0.0
22/06:30am 3.6 -0.5 2.4 92 0.5 S 13 17 7 9 1026.1 - 0.0
22/06:00am 3.3 -1.2 2.0 91 0.5 S 15 19 8 10 1025.8 1025.8 0.0
22/05:30am 3.9 -0.9 2.4 90 0.6 S 17 19 9 10 1025.5 - 0.0
22/05:00am 4.2 0.2 2.6 89 0.6 S 13 17 7 9 1025.6 1025.6 0.0
22/04:30am 4.8 0.5 3.3 90 0.6 S 15 17 8 9 1025.6 - 0.0
22/04:00am 5.1 0.9 3.6 90 0.6 S 15 19 8 10 1025.6 1025.6 0.0
22/03:30am 4.7 0.0 3.2 90 0.6 S 17 19 9 10 1025.6 - 0.0
22/03:00am 5.0 0.3 3.3 89 0.7 S 17 20 9 11 1025.6 1025.6 0.0
22/02:30am 6.3 2.2 4.1 86 0.9 SSE 15 19 8 10 1025.6 - 0.0
22/02:00am 6.9 2.9 4.7 86 1.0 SSE 15 19 8 10 1025.6 1025.6 0.0
22/01:30am 6.6 2.5 4.4 86 0.9 SSE 15 19 8 10 1025.8 - 0.0
22/01:00am 6.6 2.9 4.6 87 0.9 S 13 17 7 9 1026.0 1026.0 0.0
22/12:30am 6.7 2.7 4.7 87 0.9 S 15 20 8 11 1026.1 - 0.0
22/12:00am 6.8 1.9 5.0 88 0.8 S 20 24 11 13 1026.1 1026.1 0.0
 
Date/Time
EST
Temp
°C
App
Temp
°C
Dew
Point
Rel
Hum
%
Delta-T
°C
Wind Press
QNH
hPa
Press
MSL
hPa
Rain
since 9 am
mm
Dir
 
Spd
km/h
Gust
km/h
Spd
kts
Gust
kts
21/11:30pm 6.7 2.7 5.0 89 0.7 S 15 19 8 10 1026.4 - 0.0
21/11:00pm 6.5 2.9 5.0 90 0.7 S 13 17 7 9 1026.3 1026.3 0.0
21/10:30pm 6.5 2.1 5.0 90 0.7 S 17 20 9 11 1026.3 - 0.0
21/10:00pm 6.6 3.0 5.1 90 0.7 S 13 17 7 9 1026.3 1026.3 0.0
21/09:30pm 6.4 3.1 4.7 89 0.7 S 11 15 6 8 1026.4 - 0.0
21/09:00pm 6.6 3.0 5.1 90 0.7 S 13 17 7 9 1026.4 1026.4 0.0
21/08:30pm 6.9 3.3 5.1 88 0.8 S 13 17 7 9 1026.4 - 0.0
21/08:00pm 7.1 3.5 5.1 87 0.9 S 13 15 7 8 1026.4 1026.4 0.0
21/07:30pm 7.1 3.2 5.3 88 0.8 SSE 15 15 8 8 1026.3 - 0.0
21/07:00pm 6.3 3.0 4.6 89 0.7 SSE 11 13 6 7 1026.2 1026.2 0.0
21/06:30pm 6.2 2.9 4.4 88 0.8 S 11 13 6 7 1026.1 - 0.0
21/06:00pm 6.3 2.9 4.1 86 0.9 SSE 11 13 6 7 1025.9 1025.9 0.0
21/05:30pm 7.8 4.6 5.1 83 1.2 SSE 11 11 6 6 1025.9 - 0.0
21/05:00pm 9.1 6.1 6.0 81 1.4 SSE 11 13 6 7 1025.7 1025.7 0.0
21/04:30pm 9.9 7.4 6.4 79 1.6 S 9 11 5 6 1025.7 - 0.0
21/04:00pm 11.0 8.5 6.7 75 2.0 S 9 9 5 5 1025.6 1025.6 0.0
21/03:30pm 11.3 8.7 6.2 71 2.4 S 9 11 5 6 1025.5 - 0.0
21/03:00pm 11.4 8.8 6.3 71 2.4 S 9 11 5 6 1025.5 1025.5 0.0
21/02:30pm 11.5 8.9 6.2 70 2.5 S 9 11 5 6 1025.4 - 0.0

Other Formats:

Comma delimited format used in spreadsheet applications
http://www.bom.gov.au/fwo/IDT60801/IDT60801.95960.axf

JavaScript Object Notation format (JSON) in row-major order
http://www.bom.gov.au/fwo/IDT60801/IDT60801.95960.json